Location: Amsterdam
(30.7274°N, 84.4357°W)
Time: 16:16:27
(UTC+00:00)

A-11 Canister half - Visible Passes

Search period start: 10 February 2026 00:00
Search period end: 20 February 2026 00:00
Orbit: 1526 x 1682 km, 47.3° (Epoch: 10 February)

Date Brightness Start Highest point End Pass type
(mag) Time Alt. Az. Time Alt. Az. Time Alt. Az.
10 Feb 9.4 00:09:07 10° WSW 00:18:19 60° NNW 00:27:31 10° NE visible
10 Feb 10.0 02:17:06 10° WNW 02:24:59 30° N 02:25:48 29° N visible
10 Feb 9.3 23:47:12 10° WSW 23:56:27 63° NW 00:05:41 10° NE visible
11 Feb 10.0 01:55:06 10° WNW 02:03:02 30° N 02:05:19 27° NNE visible
11 Feb 11.1 04:02:29 10° NW 04:03:36 14° NW 04:03:36 14° NW visible
12 Feb 10.1 01:33:06 10° WNW 01:41:05 31° NNW 01:44:47 24° NNE visible
12 Feb 10.8 03:40:37 10° NW 03:43:04 18° NW 03:43:04 18° NW visible
13 Feb 10.1 01:11:06 10° WNW 01:19:08 31° NNW 01:24:13 20° NNE visible
13 Feb 10.6 03:18:44 10° NW 03:22:31 22° NNW 03:22:31 22° NNW visible
14 Feb 10.1 00:49:06 10° WNW 00:57:12 32° NNW 01:03:39 15° NE visible
14 Feb 10.3 02:56:50 10° NW 03:01:56 26° NNW 03:01:56 26° NNW visible
15 Feb 10.1 00:27:05 10° WNW 00:35:15 33° NNW 00:43:04 11° NE visible
15 Feb 10.1 02:34:57 10° NW 02:41:21 29° N 02:41:21 29° N visible
16 Feb 10.0 00:05:05 10° W 00:13:19 34° NNW 00:21:35 10° NE visible
16 Feb 10.0 02:13:02 10° NW 02:20:45 29° N 02:20:45 29° N visible
16 Feb 11.1 04:18:28 10° NW 04:19:02 12° NW 04:19:02 12° NW visible
16 Feb 10.0 23:43:04 10° W 23:51:24 35° NNW 23:59:43 10° NE visible
17 Feb 10.0 01:51:08 10° NW 01:58:57 29° N 02:00:09 28° NNE visible
17 Feb 10.9 03:56:38 10° NW 03:58:26 17° NW 03:58:26 17° NW visible
18 Feb 10.0 01:29:13 10° NW 01:37:00 29° N 01:39:34 25° NNE visible
18 Feb 10.6 03:34:49 10° NW 03:37:51 23° NW 03:37:51 23° NW visible
19 Feb 10.1 01:07:17 10° NW 01:15:02 28° N 01:18:58 22° NE visible
19 Feb 10.3 03:13:00 10° NW 03:17:15 29° NNW 03:17:15 29° NNW visible
